COSMOS 826

Satellite information

Favourite Embed

Satellite Type and Status

PAYLOADIN ORBIT

Key statistics

Satellite COSMOS 826 at a glance.

Uptime

17983

Days in orbit

Revolutions

≈ 12.4

Per day

Orbit

LEO

Low Earth Orbit

Inclination

74.0

Latest

Satellite identification and parameters

Extended collection of information and parameters for COSMOS 826.

Object identification

Identified? True

Debris? False

Object name: COSMOS 826

International designator: 1976-054B

Object number (NORAD): 8890

Object ID (CCSDS): 8890

Country: COMMONWEALTH OF INDEPENDENT STATES (CIS)

Current information (Y/N): Y

RCS size: MEDIUM

Orbital parameters

Period: 116.265 minutes

Inclination: 73.9977 deg

SMA: 7890.896 km

Apoapsis: 1543.778 km

Periapsis: 1481.744 km

RAAN: 86.5466 deg

Eccentricy: 0.00393072

Argument of periapsis: 129.5416 deg

Mean anomaly: 295.2677 deg

Mean motion: 12.38549328 rev/day

Mean motion (dot): 0.00000002 rev/day2

B* drag term: 0.00013534167 1/REarth

Two-line elements (TLE)

Creation date: Sept. 8, 2025, 6:18 p.m.

Reference frame: TEME

Reference center: EARTH

Epoch: Sept. 8, 2025, 1:38 p.m. UTC

TLE line 0: 0 COSMOS 826

TLE line 1: 1 08890U 76054B 25251.56838957 .00000002 00000-0 13534-3 0 9994

TLE line 2: 2 08890 73.9977 86.5466 0039307 129.5416 295.2677 12.38549328226018

Live tracking on map

Real-time ground track for satellite COSMOS 826.

In-orbit conjunctions

There are no conjunctions computed for COSMOS 826, at the moment. Check back to stay up to date, as we update our databases every day.

Go to all conjunctions

Associated space launch

Military communications satellites

COSMOS 826 was lifted into orbit during the mission ‘Kosmos-3M | Strela-1M 113-120’, on board a Kosmos-3M space rocket.

The launch took place on June 15, 1976, 1:19 p.m. from 132/2.

For more information about the launch, click the button.

Launch to space Kosmos-3M | Strela-1M 113-120
Kosmos-3M | Strela-1M 113-120

Agency: N/A

Status: Launch Successful

Launch date: June 15, 1976, 1:19 p.m. UTC

Rocket: Kosmos-3M

Launch pad: 132/2

Location: Plesetsk Cosmodrome, Russian Federation

...

Latest news about this satellite

There are no fresh news available about this satellite. Check back as we update our databases every day.


Newsletter sign-up

Weekly statistics, charts and insights to help you stay on top of the space industry.